User: anonymous   Login
Location: Theydon Bois
(51.6750°N, 0.1050°E)
Time: 13:37:55
(UTC+01:00)
Language:

COSMOS 2487 - Orbit

View from above orbital plane
View from above orbital plane
View from above satellite
View from above satellite

Ground track
Ground track

The orbit data is extracted from the following two-line orbital elements,

1 39194U 13032A   18175.18628214  .00003636  00000-0  10066-3 0  9993
2 39194  74.7142 102.4433 0004164 275.8002  84.2734 15.37330436278649
Epoch (UTC): 24 June 2018 04:28:14
Eccentricity: 0.0004164
inclination: 74.7142°
perigee height: 451 km
apogee height: 457 km
right ascension of ascending node: 102.4433°
argument of perigee: 275.8002°
revolutions per day: 15.37330436
mean anomaly at epoch: 84.2734°
orbit number at epoch: 27864

The dashed part of the orbit path shows where the satellite is in the earth's shadow,  

DLR